When you browse on this site, cookies collect data to enhance your experience and personalize the content and advertising you see.
Visit our Privacy Policy to learn more. By continuing to use the site, you agree to this use of cookies and data.
  • în România
  • Lista ţărilor
  • Pe 7 zile
  • Temperatura apei
  • Hartă satelitară
  • Meteo pe hartă
  • Widget-uri
  • user-avatar
    Intrare

    Meteo pe oră la Vysokoe

    Astăzi, 21 Iulie, Duminică

    Timp Temperatura Precipitaţii Vânt Presiune Umiditate
    00:00 +14°C° 0 mm 3 m/s 745 mmHg 91%
    01:00 +14°C° 0 mm 3 m/s 745 mmHg 91%
    02:00 +13°C° 0 mm 3 m/s 745 mmHg 92%
    03:00 +13°C° 0 mm 4 m/s 745 mmHg 92%
    04:00 +13°C° 0 mm 4 m/s 745 mmHg 91%
    05:00 +13°C° 0 mm 4 m/s 745 mmHg 90%
    06:00 +13°C° 0 mm 4 m/s 745 mmHg 89%
    07:00 +15°C° 0 mm 4 m/s 746 mmHg 85%
    08:00 +17°C° 0 mm 4 m/s 746 mmHg 81%
    09:00 +19°C° 0 mm 4 m/s 746 mmHg 77%
    10:00 +20°C° 0.1 mm 4 m/s 746 mmHg 74%
    11:00 +21°C° 0.1 mm 4 m/s 746 mmHg 72%
    12:00 +22°C° 0.1 mm 5 m/s 746 mmHg 69%
    13:00 +22°C° 0.5 mm 4 m/s 746 mmHg 69%
    14:00 +23°C° 0.5 mm 4 m/s 745 mmHg 69%
    15:00 +23°C° 0.5 mm 4 m/s 745 mmHg 69%
    16:00 +23°C° 0.6 mm 4 m/s 745 mmHg 71%
    17:00 +24°C° 0.6 mm 3 m/s 745 mmHg 73%
    18:00 +24°C° 0.6 mm 3 m/s 745 mmHg 75%
    19:00 +21°C° 0.6 mm 2 m/s 745 mmHg 78%
    20:00 +20°C° 0.6 mm 2 m/s 745 mmHg 82%
    21:00 +19°C° 0.6 mm 1 m/s 745 mmHg 85%
    22:00 +18°C° 0 mm 1 m/s 745 mmHg 86%
    23:00 +18°C° 0 mm 1 m/s 745 mmHg 87%

    Mâine, 22 Iulie, Luni

    Timp Temperatura Precipitaţii Vânt Presiune Umiditate
    00:00 +16°C° 0 mm 1 m/s 745 mmHg 88%
    01:00 +16°C° 0 mm 1 m/s 745 mmHg 89%
    02:00 +16°C° 0 mm 1 m/s 745 mmHg 89%
    03:00 +15°C° 0 mm 1 m/s 746 mmHg 90%
    04:00 +16°C° 0 mm 1 m/s 746 mmHg 90%
    05:00 +16°C° 0 mm 1 m/s 746 mmHg 89%
    06:00 +16°C° 0 mm 1 m/s 746 mmHg 89%
    07:00 +17°C° 0 mm 0 m/s 746 mmHg 84%
    08:00 +18°C° 0 mm 0 m/s 746 mmHg 80%
    09:00 +20°C° 0 mm 0 m/s 746 mmHg 75%
    10:00 +21°C° 0.4 mm 0 m/s 746 mmHg 71%
    11:00 +24°C° 0.4 mm 1 m/s 746 mmHg 67%
    12:00 +25°C° 0.4 mm 1 m/s 745 mmHg 63%
    13:00 +25°C° 0.2 mm 1 m/s 745 mmHg 61%
    14:00 +26°C° 0.2 mm 1 m/s 745 mmHg 59%
    15:00 +26°C° 0.2 mm 1 m/s 744 mmHg 57%
    16:00 +26°C° 0.1 mm 1 m/s 744 mmHg 59%
    17:00 +26°C° 0.1 mm 1 m/s 744 mmHg 62%
    18:00 +26°C° 0.1 mm 1 m/s 744 mmHg 64%
    19:00 +24°C° 0 mm 1 m/s 744 mmHg 69%
    20:00 +22°C° 0 mm 1 m/s 744 mmHg 74%
    21:00 +20°C° 0 mm 1 m/s 743 mmHg 79%
    22:00 +20°C° 0 mm 1 m/s 743 mmHg 80%
    23:00 +19°C° 0 mm 2 m/s 743 mmHg 82%

    Poimâine, 23 Iulie, Marţi

    Timp Temperatura Precipitaţii Vânt Presiune Umiditate
    00:00 +18°C° 0 mm 2 m/s 743 mmHg 83%
    01:00 +18°C° 0 mm 2 m/s 743 mmHg 84%
    02:00 +19°C° 0 mm 1 m/s 743 mmHg 84%
    03:00 +19°C° 0 mm 1 m/s 742 mmHg 85%
    04:00 +18°C° 0.2 mm 2 m/s 742 mmHg 86%
    05:00 +18°C° 0.2 mm 2 m/s 742 mmHg 88%
    06:00 +18°C° 0.2 mm 2 m/s 742 mmHg 89%
    07:00 +17°C° 1.8 mm 3 m/s 742 mmHg 91%
    08:00 +17°C° 1.8 mm 3 m/s 742 mmHg 92%
    09:00 +17°C° 1.8 mm 4 m/s 742 mmHg 94%
    10:00 +17°C° 1.3 mm 4 m/s 742 mmHg 94%
    11:00 +17°C° 1.3 mm 4 m/s 742 mmHg 93%
    12:00 +17°C° 1.3 mm 5 m/s 742 mmHg 93%
    13:00 +17°C° 0.1 mm 5 m/s 742 mmHg 93%
    14:00 +17°C° 0.1 mm 5 m/s 742 mmHg 92%
    15:00 +19°C° 0.1 mm 5 m/s 742 mmHg 91%
    16:00 +19°C° 0.2 mm 5 m/s 742 mmHg 92%
    17:00 +19°C° 0.2 mm 5 m/s 742 mmHg 93%
    18:00 +19°C° 0.2 mm 4 m/s 742 mmHg 93%
    19:00 +17°C° 0.1 mm 5 m/s 742 mmHg 94%
    20:00 +17°C° 0.1 mm 5 m/s 742 mmHg 94%
    21:00 +16°C° 0.1 mm 5 m/s 741 mmHg 95%
    22:00 +16°C° 0.9 mm 5 m/s 742 mmHg 95%
    23:00 +16°C° 0.9 mm 5 m/s 742 mmHg 96%

    24 Iulie, Miercuri

    Timp Temperatura Precipitaţii Vânt Presiune Umiditate
    00:00 +17°C° 0.9 mm 4 m/s 742 mmHg 96%
    01:00 +17°C° 0.3 mm 4 m/s 742 mmHg 96%
    02:00 +17°C° 0.3 mm 4 m/s 742 mmHg 96%
    03:00 +17°C° 0.3 mm 3 m/s 742 mmHg 97%
    04:00 +17°C° 0 mm 3 m/s 742 mmHg 96%
    05:00 +17°C° 0 mm 4 m/s 742 mmHg 96%
    06:00 +17°C° 0 mm 4 m/s 742 mmHg 96%
    07:00 +17°C° 0 mm 4 m/s 742 mmHg 95%
    08:00 +18°C° 0 mm 4 m/s 742 mmHg 93%
    09:00 +18°C° 0 mm 4 m/s 742 mmHg 92%
    10:00 +18°C° 0 mm 3 m/s 743 mmHg 91%
    11:00 +19°C° 0 mm 3 m/s 743 mmHg 90%
    12:00 +19°C° 0 mm 3 m/s 743 mmHg 89%
    13:00 +19°C° 0 mm 3 m/s 743 mmHg 88%
    14:00 +20°C° 0 mm 3 m/s 744 mmHg 86%
    15:00 +20°C° 0 mm 3 m/s 744 mmHg 84%
    16:00 +20°C° 0 mm 3 m/s 744 mmHg 84%
    17:00 +20°C° 0 mm 3 m/s 744 mmHg 85%
    18:00 +20°C° 0 mm 3 m/s 744 mmHg 85%
    19:00 +19°C° 0 mm 2 m/s 744 mmHg 88%
    20:00 +18°C° 0 mm 2 m/s 744 mmHg 90%
    21:00 +17°C° 0 mm 2 m/s 744 mmHg 93%
    22:00 +17°C° 0 mm 2 m/s 744 mmHg 93%
    23:00 +17°C° 0 mm 2 m/s 745 mmHg 94%

    25 Iulie, Joi

    Timp Temperatura Precipitaţii Vânt Presiune Umiditate
    00:00 +16°C° 0 mm 2 m/s 745 mmHg 95%
    01:00 +16°C° 0 mm 2 m/s 745 mmHg 95%
    02:00 +16°C° 0 mm 2 m/s 745 mmHg 95%
    03:00 +16°C° 0 mm 2 m/s 745 mmHg 95%
    04:00 +16°C° 0 mm 2 m/s 745 mmHg 94%
    05:00 +16°C° 0 mm 2 m/s 745 mmHg 93%
    06:00 +16°C° 0 mm 2 m/s 745 mmHg 92%
    07:00 +17°C° 0 mm 2 m/s 745 mmHg 89%
    08:00 +18°C° 0 mm 3 m/s 745 mmHg 87%
    09:00 +18°C° 0 mm 3 m/s 746 mmHg 85%
    10:00 +19°C° 0.1 mm 3 m/s 746 mmHg 83%
    11:00 +19°C° 0.1 mm 3 m/s 746 mmHg 82%
    12:00 +20°C° 0.1 mm 3 m/s 746 mmHg 81%
    13:00 +20°C° 0 mm 2 m/s 746 mmHg 80%
    14:00 +20°C° 0 mm 2 m/s 746 mmHg 79%
    15:00 +21°C° 0 mm 2 m/s 746 mmHg 78%
    16:00 +21°C° 0.1 mm 2 m/s 746 mmHg 78%
    17:00 +23°C° 0.1 mm 2 m/s 745 mmHg 78%
    18:00 +24°C° 0.1 mm 2 m/s 745 mmHg 78%
    19:00 +22°C° 0.1 mm 1 m/s 746 mmHg 80%
    20:00 +21°C° 0.1 mm 1 m/s 746 mmHg 83%
    21:00 +20°C° 0.1 mm 1 m/s 746 mmHg 86%
    22:00 +19°C° 0 mm 1 m/s 746 mmHg 86%
    23:00 +18°C° 0 mm 2 m/s 746 mmHg 87%

    26 Iulie, Vineri

    Timp Temperatura Precipitaţii Vânt Presiune Umiditate
    00:00 +18°C° 0 mm 2 m/s 746 mmHg 87%
    01:00 +17°C° 0 mm 2 m/s 745 mmHg 88%
    02:00 +17°C° 0 mm 2 m/s 745 mmHg 89%
    03:00 +17°C° 0 mm 3 m/s 745 mmHg 90%
    04:00 +17°C° 0 mm 3 m/s 745 mmHg 89%
    05:00 +17°C° 0 mm 2 m/s 745 mmHg 89%
    06:00 +17°C° 0 mm 2 m/s 745 mmHg 88%
    07:00 +18°C° 0 mm 3 m/s 745 mmHg 84%
    08:00 +19°C° 0 mm 3 m/s 745 mmHg 79%
    09:00 +21°C° 0 mm 3 m/s 745 mmHg 75%
    10:00 +22°C° 0 mm 3 m/s 745 mmHg 70%
    11:00 +24°C° 0 mm 3 m/s 745 mmHg 65%
    12:00 +25°C° 0 mm 3 m/s 745 mmHg 59%
    13:00 +25°C° 0.1 mm 4 m/s 744 mmHg 61%
    14:00 +26°C° 0.1 mm 4 m/s 744 mmHg 63%
    15:00 +26°C° 0.1 mm 4 m/s 744 mmHg 65%
    16:00 +25°C° 0.1 mm 4 m/s 743 mmHg 67%
    17:00 +23°C° 0.1 mm 4 m/s 743 mmHg 68%
    18:00 +22°C° 0.1 mm 4 m/s 743 mmHg 69%
    19:00 +21°C° 0 mm 4 m/s 743 mmHg 72%
    20:00 +19°C° 0 mm 4 m/s 744 mmHg 74%
    21:00 +17°C° 0 mm 4 m/s 744 mmHg 76%
    22:00 +16°C° 0 mm 3 m/s 744 mmHg 78%
    23:00 +16°C° 0 mm 3 m/s 744 mmHg 80%
    Arată mai mult